TimeAST,TemperatureF,Dew PointF,Humidity,Sea Level PressureIn,VisibilityMPH,Wind Direction,Wind SpeedMPH,Gust SpeedMPH,PrecipitationIn,Events,Conditions,WindDirDegrees,DateUTC
12:00 AM,-9999,-9999,N/A,29.95,6.2,ESE,12.7,-,N/A,,Partly Cloudy,110,2013-03-05 04:00:00
1:00 AM,80.6,73.4,79,29.95,6.2,East,13.8,-,N/A,,Scattered Clouds,100,2013-03-05 05:00:00
2:00 AM,80,73,74,29.94,7,ESE,13.8,,,,Haze,110,2013-03-05 06:00:00
2:00 AM,78.8,73.4,83,29.92,6.2,ESE,13.8,-,N/A,,Scattered Clouds,110,2013-03-05 06:00:00
3:00 AM,78.8,73.4,83,29.92,6.2,ESE,10.4,-,N/A,,Partly Cloudy,120,2013-03-05 07:00:00
4:00 AM,78.8,73.4,83,29.89,6.2,ESE,12.7,-,N/A,,Partly Cloudy,110,2013-03-05 08:00:00
5:00 AM,79,72,75,29.92,7,ESE,11.5,,,,Haze,110,2013-03-05 09:00:00
5:00 AM,78.8,73.4,83,29.92,6.2,ESE,11.5,-,N/A,,Scattered Clouds,120,2013-03-05 09:00:00
6:00 AM,78.8,71.6,78,29.92,6.2,ESE,10.4,-,N/A,,Scattered Clouds,110,2013-03-05 10:00:00
7:00 AM,78.8,73.4,83,29.95,6.2,East,12.7,-,N/A,,Mostly Cloudy,100,2013-03-05 11:00:00
8:00 AM,81,74,75,29.99,11,East,11.5,,,,Haze,100,2013-03-05 12:00:00
8:00 AM,80.6,73.4,79,29.98,6.2,East,11.5,-,N/A,,Partly Cloudy,100,2013-03-05 12:00:00
9:00 AM,82.4,73.4,74,30.01,6.2,East,12.7,-,N/A,,Scattered Clouds,90,2013-03-05 13:00:00
10:00 AM,84.2,75.2,74,30.01,6.2,East,11.5,-,N/A,,Scattered Clouds,80,2013-03-05 14:00:00
11:00 AM,86,75,63,30.02,9,East,12.7,,,,Widespread Dust,90,2013-03-05 15:00:00
11:00 AM,84.2,75.2,74,30.01,6.2,East,12.7,-,N/A,,Scattered Clouds,80,2013-03-05 15:00:00
12:00 PM,86.0,75.2,70,29.98,6.2,East,12.7,-,N/A,,Scattered Clouds,80,2013-03-05 16:00:00
1:00 PM,84.2,75.2,74,29.98,6.2,East,13.8,-,N/A,Rain,Light Rain Showers,80,2013-03-05 17:00:00
2:00 PM,85,76,67,29.95,11,East,15.0,,,Rain,Light Rain Showers,80,2013-03-05 18:00:00
2:00 PM,86.0,75.2,70,29.95,6.2,East,13.8,-,N/A,,Mostly Cloudy,80,2013-03-05 18:00:00
3:00 PM,86.0,75.2,70,29.92,6.2,East,15.0,-,N/A,,Mostly Cloudy,80,2013-03-05 19:00:00
4:00 PM,84.2,75.2,74,29.92,6.2,East,16.1,-,N/A,,Scattered Clouds,80,2013-03-05 20:00:00
5:00 PM,82,74,69,29.93,12,East,16.1,,,,Haze,80,2013-03-05 21:00:00
5:00 PM,82.4,73.4,74,29.92,6.2,East,16.1,-,N/A,,Scattered Clouds,80,2013-03-05 21:00:00
6:00 PM,80.6,73.4,79,29.92,6.2,East,16.1,-,N/A,,Scattered Clouds,80,2013-03-05 22:00:00
7:00 PM,80.6,73.4,79,29.92,6.2,East,16.1,-,N/A,,Scattered Clouds,80,2013-03-05 23:00:00
8:00 PM,80,73,73,29.96,16,East,16.1,,,,Partly Cloudy,90,2013-03-06 00:00:00
8:00 PM,80.6,73.4,79,29.95,6.2,East,15.0,-,N/A,,Scattered Clouds,90,2013-03-06 00:00:00
9:00 PM,80.6,73.4,79,29.98,6.2,East,15.0,-,N/A,,Scattered Clouds,90,2013-03-06 01:00:00
10:00 PM,80.6,73.4,79,29.98,6.2,East,16.1,-,N/A,,Scattered Clouds,90,2013-03-06 02:00:00
11:00 PM,80,73,75,30.00,16,East,13.8,,,,Mostly Cloudy,90,2013-03-06 03:00:00
11:00 PM,80.6,73.4,79,29.98,6.2,East,15.0,-,N/A,,Mostly Cloudy,90,2013-03-06 03:00:00